DW9181 Weather Reports


time (UTC)temp
C
wind
direction
speed
KPH
gust
KPH
rain 1hr
cm
rain 24hr
cm
rain mn
cm
humidity
%
barometer
mb
20260504050025 5 154 0.0 0.0 0.00 0.00 0.00 71 995.5
20260504044522 5 154 0.0 3.2 0.00 0.00 0.00 69 995.5
20260504043018 6 247 0.0 0.0 0.00 0.00 0.00 67 995.5
20260504041515 6 247 0.0 0.0 0.00 0.00 0.00 65 995.4
20260504040014 6 247 0.0 1.6 0.00 0.00 0.00 65 995.5
20260504034512 7 247 0.0 3.2 0.00 0.00 0.00 61 995.3
20260504033013 7 247 0.0 1.6 0.00 0.00 0.00 59 995.2
20260504031512 8 247 0.0 0.0 0.00 0.00 0.00 56 995.3
20260504030010 7 247 0.0 0.0 0.00 0.00 0.00 57 995.4
20260504024510 7 247 0.0 0.0 0.00 0.00 0.00 64 995.3
20260504023011 7 247 0.0 0.0 0.00 0.00 0.00 64 995.3
20260504021511 7 247 0.0 0.0 0.00 0.00 0.00 64 995.2
20260504020007 7 247 0.0 0.0 0.00 0.00 0.00 61 995.0
20260504014507 8 247 0.0 0.0 0.00 0.00 0.00 57 994.9
20260504013007 8 247 0.0 0.0 0.00 0.00 0.00 55 994.9
20260504011505 9 247 0.0 0.0 0.00 0.00 0.00 53 994.7
20260504010005 10 247 0.0 0.0 0.00 0.00 0.00 49 994.7
20260504004515 11 247 0.0 0.0 0.00 0.00 0.00 47 994.6
20260504003004 12 247 0.0 0.0 0.00 0.00 0.00 43 994.5
20260504001512 13 247 0.0 0.0 0.00 0.00 0.00 38 994.4
20260504000003 13 247 0.0 1.6 0.00 0.00 0.00 35 994.2
20260503234502 15 247 0.0 0.0 0.00 0.00 0.00 34 994.1
20260503233110 15 247 1.6 6.4 0.00 0.00 0.00 32 994.1
20260503231600 15 348 3.2 6.4 0.00 0.00 0.00 31 993.9
20260503230113 15 267 3.2 9.7 0.00 0.00 0.00 30 993.9
20260503224609 16 291 3.2 11.3 0.00 0.00 0.00 30 993.9
20260503223112 16 285 1.6 6.4 0.00 0.00 0.00 33 993.8
20260503221557 16 267 3.2 12.9 0.00 0.00 0.00 31 994.0
20260503220056 16 243 4.8 12.9 0.00 0.00 0.00 30 994.0
20260503214558 16 234 6.4 14.5 0.00 0.00 0.00 29 994.1
20260503213055 16 265 4.8 14.5 0.00 0.00 0.00 30 994.0
20260503211552 16 271 3.2 16.1 0.00 0.00 0.00 29 994.1
20260503210050 16 221 8.0 17.7 0.00 0.00 0.00 29 994.1
20260503204548 15 257 4.8 11.3 0.00 0.00 0.00 31 994.2
20260503203047 16 5 6.4 12.9 0.00 0.00 0.00 31 994.1
20260503201548 15 280 4.8 14.5 0.00 0.00 0.00 29 994.4
20260503200045 15 253 1.6 12.9 0.00 0.00 0.00 32 994.5
20260503194546 15 277 3.2 14.5 0.00 0.00 0.00 31 994.8
20260503193039 14 273 3.2 11.3 0.00 0.00 0.00 33 995.0
20260503191537 15 327 0.0 9.7 0.00 0.00 0.00 31 995.1
20260503190042 15 323 3.2 20.9 0.00 0.00 0.00 35 995.3
20260503184532 15 211 6.4 14.5 0.00 0.00 0.00 31 995.4
20260503183038 15 256 3.2 11.3 0.00 0.00 0.00 33 995.6
20260503181546 14 325 8.0 14.5 0.00 0.00 0.00 32 995.7
20260503180040 14 342 8.0 16.1 0.00 0.00 0.00 32 995.9
20260503174524 13 272 4.8 16.1 0.00 0.00 0.00 31 995.9
20260503173022 13 257 4.8 14.5 0.00 0.00 0.00 38 996.2
20260503171525 13 254 6.4 16.1 0.00 0.00 0.00 37 996.3
20260503081557 4 277 0.0 0.0 0.00 0.00 0.00 67 995.9